Tracking 28902 objects as of 19-May-2024
HD Live streaming from Space Station
objects crossing your sky now

DELTA 1 DEB *

Track DELTA 1 DEB * now!
10-day predictions


NORAD ID: 8791
Int'l Code: 1966-087F
Perigee: 1,307.0 km
Apogee: 1,524.9 km
Inclination: 101.6 °
Period: 114.0 minutes
Semi major axis: 7786 km
RCS: 0.0151 m2 (small)
Launch date: October 2, 1966
Source: United States (US)
Launch site: AIR FORCE WESTERN TEST RANGE (AFWTR)

Note: This is SATELLITE DEBRIS
Your satellite tracking list
Your tracking list is empty




NASA's NSSDC Master Catalog

Two Line Element Set (TLE):
1 08791U 66087F   24123.86435162  .00000248  00000-0  15584-2 0  9998
2 08791 101.5631  95.8913 0139892 294.2603  92.3533 12.63424895646473
Source of the keplerian elements: AFSPC